Champaign, IL

5:22 AM CDT on September 25, 2017 (GMT -0500)
Univ Of Illinois-Willard

Weather History for KCMI - May, 2013

Change the Weather History Date:

Sunday, May 5, 2013

  Actual Average Record
Temperature  
Mean Temperature 60 °F 59 °F  
Max Temperature 66 °F 71 °F 88 °F (2012)
Min Temperature 53 °F 47 °F 34 °F (2011)
Degree Days  
Heating Degree Days 5 7  
Month to date heating degree days 18 37  
Since 1 July heating degree days 5543 5701  
Cooling Degree Days 0 1  
Month to date cooling degree days 4 5  
Year to date cooling degree days 12 16  
Growing Degree Days 10 (Base 50)    
Moisture  
Dew Point 53 °F    
Average Humidity 86    
Maximum Humidity 100    
Minimum Humidity 72    
Precipitation  
Precipitation 0.09 in 0.16 in 0.25 in (2011)
Month to date precipitation 0.52 0.81  
Year to date precipitation 12.76 11.42  
Sea Level Pressure  
Sea Level Pressure 29.97 in    
Wind  
Wind Speed 9 mph (NE)    
Max Wind Speed 18 mph    
Max Gust Speed 23 mph    
Visibility 9 miles    
Events Rain    
T = Trace of Precipitation, MM = Missing Value Source: NWS Daily Summary

Daily Weather History Graph

Daily Weather History Graph

Search for Another Location

Airport or City:

Trip Planner

Search our weather history database for the weather conditions in past years. The results will help you decide how hot, cold, wet, or windy it might be!

Date:

Astronomy

May. 05, 2013 Rise Set
Actual Time 5:47 AM CDT 7:52 PM CDT
Civil Twilight 5:18 AM CDT 8:22 PM CDT
Nautical Twilight 4:41 AM CDT 8:58 PM CDT
Astronomical Twilight 4:02 AM CDT 9:38 PM CDT
Moon 3:18 AM CDT (5/5) 3:51 PM CDT (5/5)
Length of Visible Light 15h 03m
Length of Day
14h 04m
Waning Crescent, 18% of the Moon is Illuminated
May 5
Waning Crescent
May 9
New
May 17
First Quarter
May 24
Full
May 31
Last Quarter

Hourly Weather History & Observations

Time (CDT) Temp. Dew Point Humidity Pressure Visibility Wind Dir Wind Speed Gust Speed Precip Events Conditions
12:53 AM 54.0 °F 52.0 °F 93% 30.01 in 8.0 mi NNE 3.5 mph - 0.01 in Rain Light Rain
1:51 AM 53.6 °F 51.8 °F 94% 30.01 in 6.0 mi ENE 6.9 mph - 0.02 in Rain Light Rain
1:53 AM 54.0 °F 53.1 °F 97% 30.01 in 6.0 mi ENE 5.8 mph - 0.02 in Rain Light Rain
2:11 AM 53.6 °F 51.8 °F 94% 29.99 in 7.0 mi NE 5.8 mph - 0.01 in Rain Light Rain
2:36 AM 53.6 °F 51.8 °F 94% 29.99 in 10.0 mi NE 6.9 mph - 0.01 in   Overcast
2:53 AM 54.0 °F 52.0 °F 93% 29.99 in 9.0 mi NNE 4.6 mph - 0.01 in   Overcast
3:53 AM 54.0 °F 52.0 °F 93% 29.98 in 10.0 mi NNE 6.9 mph - 0.00 in Rain Light Rain
4:53 AM 53.1 °F 51.1 °F 93% 29.96 in 10.0 mi NNW 6.9 mph - 0.00 in   Scattered Clouds
5:53 AM 53.1 °F 51.1 °F 93% 29.97 in 10.0 mi NNW 3.5 mph - N/A   Mostly Cloudy
6:53 AM 55.0 °F 53.1 °F 93% 29.96 in 8.0 mi NNW 6.9 mph - N/A   Mostly Cloudy
7:53 AM 57.0 °F 53.1 °F 87% 29.96 in 10.0 mi North 15.0 mph - N/A   Mostly Cloudy
8:53 AM 57.9 °F 52.0 °F 81% 29.97 in 9.0 mi NNE 9.2 mph - 0.01 in   Mostly Cloudy
9:53 AM 60.1 °F 52.0 °F 75% 29.96 in 8.0 mi NNE 5.8 mph - N/A   Mostly Cloudy
10:53 AM 59.0 °F 55.9 °F 90% 29.96 in 3.0 mi NNE 8.1 mph - 0.02 in Rain Light Rain
11:53 AM 63.0 °F 55.9 °F 78% 29.94 in 3.0 mi NNE 9.2 mph - 0.01 in   Clear
12:53 PM 64.9 °F 55.0 °F 70% 29.94 in 8.0 mi NE 10.4 mph - N/A   Partly Cloudy
1:53 PM 63.0 °F 55.0 °F 75% 29.93 in 9.0 mi East 12.7 mph - 0.00 in Rain Light Rain
2:53 PM 66.0 °F 54.0 °F 65% 29.91 in 10.0 mi ENE 11.5 mph - 0.00 in   Mostly Cloudy
3:53 PM 62.1 °F 55.9 °F 80% 29.92 in 10.0 mi East 13.8 mph - 0.01 in Rain Light Rain
4:53 PM 61.0 °F 53.1 °F 75% 29.93 in 10.0 mi East 13.8 mph - 0.00 in Rain Light Rain
5:53 PM 60.1 °F 53.1 °F 78% 29.92 in 10.0 mi ENE 8.1 mph - 0.01 in   Mostly Cloudy
6:53 PM 60.1 °F 53.1 °F 78% 29.94 in 10.0 mi East 15.0 mph 19.6 mph N/A   Mostly Cloudy
7:53 PM 57.9 °F 52.0 °F 81% 29.96 in 8.0 mi East 9.2 mph - 0.00 in Rain Light Rain
8:42 PM 57.2 °F 51.8 °F 82% 29.97 in 10.0 mi East 6.9 mph - 0.00 in   Overcast
8:53 PM 57.0 °F 52.0 °F 83% 29.97 in 10.0 mi East 9.2 mph - 0.00 in   Overcast
9:25 PM 55.4 °F 53.6 °F 94% 29.99 in 7.0 mi East 13.8 mph - 0.00 in   Overcast
9:46 PM 55.4 °F 53.6 °F 94% 29.99 in 10.0 mi East 11.5 mph - 0.00 in Rain Light Rain
9:53 PM 55.0 °F 53.1 °F 93% 29.99 in 10.0 mi East 11.5 mph - 0.00 in   Overcast
10:53 PM 54.0 °F 52.0 °F 93% 29.98 in 10.0 mi ESE 6.9 mph - N/A   Overcast
11:53 PM 54.0 °F 51.1 °F 90% 29.99 in 10.0 mi NE 4.6 mph - 0.00 in   Overcast